Regional Weather Roundup
Issued by NWS

Home | Current Version | Previous Version | Graphics & Text | Print | Product List | Glossary On
Versions: 1 2 3 4 5 6 7 8 9 10 11 12 13 14 15 16 17 18 19 20 21 22 23 24 25 26 27 28 29 30 31 32 33 34 35 36 37 38 39 40 41 42 43 44 45 46 47 48 49 50
134
ASUS45 KABQ 040501
RWRNM
NEW MEXICO REGIONAL WEATHER ROUNDUP
NATIONAL WEATHER SERVICE ALBUQUERQUE NM
1000 PM MST SAT DEC 03 2016

NOTE: "FAIR" MEANS FEW OR NO CLOUDS BELOW 12,000 FEET AGL WITH NO
       SIGNIFICANT WEATHER OR OBSTRUCTIONS TO VISION.

      THIS PRODUCT IS RELEASED AS TWO VERSIONS.  ONE VERSION NEAR
      THE TOP OF THE HOUR CONTAINING PRELIMINARY DATA FROM ALBUQUERQUE
      AND OTHER STATIONS.  A FINAL VERSION WITH ADDITIONAL DATA IS
      ISSUED ABOUT 10 MINUTES AFTER THE HOUR.

NMZ501-503-504-510>518-040600-
NORTHWEST PLATEAU/NORTHCENTRAL MOUNTAINS

CITY           SKY/WX    TMP DP  RH WIND       PRES   REMARKS
FARMINGTON     FAIR      27  14  58 W10       30.08S WCI  17
LOS ALAMOS     FAIR      33  19  56 N13G18    30.07R WCI  24
SANTA FE       FAIR      31  21  66 N15       30.05R WCI  20
TAOS           FAIR      18   9  68 N8        30.09R WCI   7
ANGEL FIRE     FAIR      11   9  92 CALM      30.07R

$$
NMZ402-403-502-505>509-040600-
WESTCENTRAL MOUNTAINS/SOUTHWEST MOUNTAINS

CITY           SKY/WX    TMP DP  RH WIND       PRES   REMARKS
GALLUP         FAIR      19  17  92 CALM      30.14R
GRANTS         FAIR      23  20  90 N9        30.13R WCI  13
SILVER CITY    FAIR      34  32  91 N6        30.02R WCI  29

$$
NMZ407-409-411-412-040600-
SOUTHERN DESERTS

CITY           SKY/WX    TMP DP  RH WIND       PRES   REMARKS
DEMING         CLOUDY    42  40  92 S5        30.02S
LAS CRUCES     CLOUDY    44  39  82 SW3       30.02R
HOLLOMAN AFB   CLOUDY    44  39  82 CALM      30.05R
T OR C         FAIR      39  30  70 NW7       30.03R WCI  34

$$
NMZ519>523-040600-
CENTRAL VALLEYS/CENTRAL HIGHLANDS

CITY           SKY/WX    TMP DP  RH WIND       PRES   REMARKS
ALBUQUERQUE    FAIR      36  22  56 NW12      30.09R WCI  28
DOUBLE EAGLE   CLEAR     30  21  69 NW6       30.09R WCI  24
MORIARTY ARPT  FAIR      24  18  78 CALM      30.05S
CLINES CORNERS FAIR      26  19  74 NW17      30.02R WCI  13
BELEN          FAIR      33  26  75 NE8       30.08S WCI  26
SOCORRO        FAIR      38  26  61 N13       30.06S WCI  30

$$
NMZ524>526-539-540-040600-
SOUTHCENTRAL MOUNTAINS

CITY           SKY/WX    TMP DP  RH WIND       PRES   REMARKS
RUIDOSO        NOT AVBL

$$
NMZ527>531-040600-
NORTHEAST HIGHLANDS/NORTHEAST PLAINS

CITY           SKY/WX    TMP DP  RH WIND       PRES   REMARKS
LAS VEGAS      FAIR      24  19  81 N10       30.01R WCI  14
RATON          FAIR      20  16  84 N7        30.03R WCI  11
CLAYTON        FAIR      32  31  96 NW14      29.99R WCI  22

$$
NMZ532>537-040600-
EASTCENTRAL PLAINS

CITY           SKY/WX    TMP DP  RH WIND       PRES   REMARKS
TUCUMCARI      FAIR      29  27  92 CALM      30.01R
CANNON AFB     FAIR      32  32 100 NW5       29.99R FOG     WCI  27
CLOVIS AIRPORT CLOUDY    36  32  87 SW5       29.99R VSB 3/4 WCI  32

$$
NMZ028-029-538-040600-
SOUTHEAST PLAINS

CITY           SKY/WX    TMP DP  RH WIND       PRES   REMARKS
ROSWELL        MOCLDY    35  33  92 S3        30.01R
ARTESIA        CLOUDY    36  36 100 SW6       30.03S WCI  31
CARLSBAD       CLOUDY    39  39 100 W3        30.02R
HOBBS          CLOUDY    39  39 100 NW3       30.03R FOG


$$




USA.gov is the U.S. government's official web portal to all federal, state and local government web resources and services.